Torna al catalogo

FENGYUN 1C DEB

AttivoPO
NORAD 32425·DEBRIS·🇨🇳 China

Lanciato May 10, 1999 da Taiyuan Satellite Launch Center

Loading…

Prossimi Passaggi (prossime 24 ore)

TLE

In scadenzaSource: Space-Track

Epoca: Sep 11, 2026, 00:08 UTC

1 32425U 99025DAM 26254.00612266  .00000736  00000-0  29095-3 0  9997
2 32425  96.7248 341.2846 0231383 196.9584 162.3770 14.17374620733918

Traccia FENGYUN 1C DEB in tempo reale con AllMySat

Download on the App Store